N5CJ KYNG-KCMH

Flight info

Callsign N5CJ
Flight time 0h 29m
Altitude 18000
Route BUGZZ CBUSS2
Aircraft GLF5/M-VGDW/C

Departure

Time 2026-05-09 01:43
Airport Youngstown Warren Regional Airport (KYNG)

Arrival

Time 2026-05-09 02:13
Airport John Glenn Columbus International Airport (KCMH)
Time Latitude Longitude Altitude Speed Heading
2026-05-09 00:54 41.25823 -80.66734 1186 ft 0 kts 267°
2026-05-09 01:35 41.25822 -80.66747 1186 ft 2 kts 267°
2026-05-09 01:36 41.25822 -80.66766 1186 ft 1 kts 268°
2026-05-09 01:36 41.25822 -80.66782 1187 ft 2 kts 269°
2026-05-09 01:36 41.25822 -80.66798 1187 ft 0 kts 270°
2026-05-09 01:36 41.25822 -80.66809 1187 ft 1 kts 269°
2026-05-09 01:37 41.25819 -80.66833 1188 ft 3 kts 255°
2026-05-09 01:37 41.25814 -80.66885 1188 ft 6 kts 285°
2026-05-09 01:37 41.25840 -80.66923 1188 ft 0 kts 320°
2026-05-09 01:41 41.25840 -80.66924 1188 ft 0 kts 320°
2026-05-09 01:41 41.25853 -80.66937 1188 ft 4 kts 321°
2026-05-09 01:41 41.25881 -80.66967 1189 ft 5 kts 323°
2026-05-09 01:42 41.25912 -80.66978 1190 ft 4 kts 346°
2026-05-09 01:42 41.25909 -80.67004 1189 ft 4 kts 228°
2026-05-09 01:42 41.25859 -80.67072 1187 ft 25 kts 226°
2026-05-09 01:42 41.25480 -80.67580 1166 ft 130 kts 224°
2026-05-09 01:43 41.24696 -80.68636 1719 ft 177 kts 227°
2026-05-09 01:43 41.23901 -80.69726 3289 ft 168 kts 227°
2026-05-09 01:43 41.23077 -80.70798 4285 ft 187 kts 227°
2026-05-09 01:43 41.21988 -80.72086 4862 ft 226 kts 224°
2026-05-09 01:44 41.20736 -80.73539 4963 ft 242 kts 224°
2026-05-09 01:44 41.19462 -80.75048 4960 ft 246 kts 224°
2026-05-09 01:44 41.18182 -80.76514 4988 ft 249 kts 224°
2026-05-09 01:44 41.16906 -80.77989 5772 ft 246 kts 224°
2026-05-09 01:45 41.15676 -80.79381 7432 ft 245 kts 224°
2026-05-09 01:45 41.14383 -80.80871 7922 ft 248 kts 225°
2026-05-09 01:45 41.13056 -80.82372 7979 ft 254 kts 224°
2026-05-09 01:45 41.11729 -80.83895 8064 ft 253 kts 224°
2026-05-09 01:46 41.10392 -80.85435 7886 ft 251 kts 224°
2026-05-09 01:46 41.09067 -80.86919 7965 ft 250 kts 224°
2026-05-09 01:46 41.07728 -80.88423 7944 ft 252 kts 224°
2026-05-09 01:46 41.06406 -80.89933 8017 ft 249 kts 225°
2026-05-09 01:47 41.05081 -80.91406 8060 ft 251 kts 224°
2026-05-09 01:47 41.03731 -80.92849 8672 ft 248 kts 223°
2026-05-09 01:47 41.02447 -80.94243 10039 ft 255 kts 224°
2026-05-09 01:47 41.00953 -80.95942 9948 ft 299 kts 225°
2026-05-09 01:48 40.99406 -80.97753 9981 ft 319 kts 224°
2026-05-09 01:48 40.97690 -80.99732 10042 ft 345 kts 225°
2026-05-09 01:48 40.95887 -81.01789 9993 ft 342 kts 224°
2026-05-09 01:48 40.94087 -81.03895 10053 ft 345 kts 225°
2026-05-09 01:49 40.92291 -81.05994 9993 ft 346 kts 224°
2026-05-09 01:49 40.90465 -81.08078 9992 ft 345 kts 224°
2026-05-09 01:49 40.88696 -81.10130 9942 ft 342 kts 224°
2026-05-09 01:49 40.86858 -81.12172 9945 ft 343 kts 223°
2026-05-09 01:50 40.85036 -81.14175 9880 ft 344 kts 224°
2026-05-09 01:50 40.83241 -81.16287 9933 ft 342 kts 225°
2026-05-09 01:50 40.81490 -81.18366 9956 ft 339 kts 225°
2026-05-09 01:50 40.79696 -81.20432 9903 ft 347 kts 225°
2026-05-09 01:51 40.77869 -81.22511 9978 ft 339 kts 224°
2026-05-09 01:51 40.76070 -81.24567 11231 ft 349 kts 225°
2026-05-09 01:51 40.74275 -81.26678 12324 ft 360 kts 225°
2026-05-09 01:51 40.72390 -81.28829 13590 ft 365 kts 225°
2026-05-09 01:52 40.70463 -81.31014 14751 ft 372 kts 225°
2026-05-09 01:52 40.68475 -81.33231 15757 ft 378 kts 225°
2026-05-09 01:52 40.66450 -81.35472 15968 ft 382 kts 225°
2026-05-09 01:52 40.64397 -81.37723 15969 ft 382 kts 225°
2026-05-09 01:53 40.62672 -81.40334 15946 ft 373 kts 240°
2026-05-09 01:53 40.61808 -81.43488 15931 ft 368 kts 262°
2026-05-09 01:53 40.61912 -81.46816 16003 ft 368 kts 276°
2026-05-09 01:53 40.61999 -81.50198 15989 ft 370 kts 270°
2026-05-09 01:54 40.61904 -81.53526 15968 ft 368 kts 268°
2026-05-09 01:54 40.61756 -81.56918 16012 ft 369 kts 267°
2026-05-09 01:54 40.61578 -81.60267 16009 ft 370 kts 266°
2026-05-09 01:54 40.61373 -81.63602 16002 ft 369 kts 266°
2026-05-09 01:55 40.61196 -81.66876 15934 ft 369 kts 266°
2026-05-09 01:55 40.61015 -81.70273 15944 ft 366 kts 266°
2026-05-09 01:55 40.60827 -81.73622 15882 ft 369 kts 266°
2026-05-09 01:55 40.60625 -81.76958 15972 ft 368 kts 266°
2026-05-09 01:56 40.60438 -81.80290 15997 ft 369 kts 266°
2026-05-09 01:56 40.60255 -81.83637 15971 ft 366 kts 266°
2026-05-09 01:56 40.60049 -81.87000 16009 ft 368 kts 265°
2026-05-09 01:56 40.59880 -81.90320 15950 ft 368 kts 266°
2026-05-09 01:57 40.59713 -81.93707 16019 ft 367 kts 266°
2026-05-09 01:57 40.59546 -81.97050 16092 ft 370 kts 266°
2026-05-09 01:57 40.59379 -82.00421 16014 ft 370 kts 266°
2026-05-09 01:57 40.59181 -82.03752 15764 ft 370 kts 265°
2026-05-09 01:58 40.58899 -82.07126 15295 ft 367 kts 264°
2026-05-09 01:58 40.58636 -82.10461 14903 ft 366 kts 265°
2026-05-09 01:58 40.58471 -82.13741 14237 ft 368 kts 268°
2026-05-09 01:58 40.58300 -82.17051 13623 ft 361 kts 266°
2026-05-09 01:59 40.58075 -82.20327 13101 ft 360 kts 265°
2026-05-09 01:59 40.57840 -82.23557 12675 ft 354 kts 265°
2026-05-09 01:59 40.57691 -82.26761 11984 ft 353 kts 265°
2026-05-09 01:59 40.57444 -82.29971 11679 ft 352 kts 265°
2026-05-09 02:00 40.57219 -82.33124 10985 ft 350 kts 266°
2026-05-09 02:00 40.57062 -82.36282 10545 ft 344 kts 266°
2026-05-09 02:00 40.56858 -82.39378 10365 ft 345 kts 264°
2026-05-09 02:00 40.56433 -82.42510 10125 ft 345 kts 258°
2026-05-09 02:01 40.55640 -82.45452 9922 ft 345 kts 248°
2026-05-09 02:01 40.54247 -82.47965 9910 ft 349 kts 230°
2026-05-09 02:01 40.52326 -82.49985 9858 ft 354 kts 217°
2026-05-09 02:01 40.50000 -82.51114 9803 ft 361 kts 197°
2026-05-09 02:02 40.47437 -82.51328 9850 ft 372 kts 182°
2026-05-09 02:02 40.44906 -82.50861 9918 ft 352 kts 178°
2026-05-09 02:02 40.42587 -82.50708 9914 ft 320 kts 185°
2026-05-09 02:02 40.40463 -82.50840 9862 ft 294 kts 192°
2026-05-09 02:03 40.38533 -82.51393 9814 ft 282 kts 201°
2026-05-09 02:03 40.36705 -82.52183 9864 ft 274 kts 205°
2026-05-09 02:03 40.34872 -82.52998 9845 ft 273 kts 205°
2026-05-09 02:03 40.33065 -82.53738 9821 ft 282 kts 202°
2026-05-09 02:04 40.31184 -82.54414 9686 ft 276 kts 201°
2026-05-09 02:04 40.29343 -82.55110 9566 ft 282 kts 202°
2026-05-09 02:04 40.27479 -82.55820 9193 ft 279 kts 201°
2026-05-09 02:04 40.25621 -82.56458 8808 ft 282 kts 200°
2026-05-09 02:05 40.23679 -82.57152 7903 ft 291 kts 200°
2026-05-09 02:05 40.21763 -82.57775 7465 ft 287 kts 198°
2026-05-09 02:05 40.19815 -82.58393 6847 ft 286 kts 198°
2026-05-09 02:05 40.17912 -82.59001 6220 ft 280 kts 198°
2026-05-09 02:06 40.16122 -82.59602 5681 ft 256 kts 200°
2026-05-09 02:06 40.14481 -82.60197 5207 ft 231 kts 200°
2026-05-09 02:06 40.12993 -82.60685 4708 ft 213 kts 199°
2026-05-09 02:07 40.10226 -82.61655 4115 ft 200 kts 200°
2026-05-09 02:07 40.08859 -82.62122 3812 ft 205 kts 200°
2026-05-09 02:07 40.07476 -82.62598 3537 ft 204 kts 199°
2026-05-09 02:07 40.06090 -82.63081 3142 ft 207 kts 199°
2026-05-09 02:08 40.04716 -82.63573 2916 ft 203 kts 200°
2026-05-09 02:08 40.03360 -82.64088 3062 ft 206 kts 200°
2026-05-09 02:08 40.02007 -82.64655 2973 ft 206 kts 205°
2026-05-09 02:08 40.00918 -82.65820 2936 ft 196 kts 231°
2026-05-09 02:09 40.00308 -82.67441 2947 ft 203 kts 249°
2026-05-09 02:09 40.00034 -82.69231 2938 ft 204 kts 262°
2026-05-09 02:09 40.00078 -82.71083 2980 ft 203 kts 270°
2026-05-09 02:09 40.00163 -82.72913 3028 ft 205 kts 270°
2026-05-09 02:10 40.00254 -82.74731 2989 ft 204 kts 272°
2026-05-09 02:10 40.00281 -82.76588 2823 ft 205 kts 262°
2026-05-09 02:10 39.99934 -82.78313 2376 ft 184 kts 253°
2026-05-09 02:10 39.99702 -82.79784 2052 ft 157 kts 268°
2026-05-09 02:11 39.99768 -82.81141 1736 ft 140 kts 274°
2026-05-09 02:11 39.99843 -82.82318 1620 ft 127 kts 277°
2026-05-09 02:11 39.99916 -82.83456 1425 ft 127 kts 275°
2026-05-09 02:11 39.99967 -82.84596 1346 ft 125 kts 274°
2026-05-09 02:12 40.00032 -82.85742 1173 ft 128 kts 276°
2026-05-09 02:12 40.00100 -82.86912 997 ft 130 kts 275°
2026-05-09 02:12 40.00171 -82.88077 819 ft 130 kts 276°
2026-05-09 02:12 40.00227 -82.89098 814 ft 91 kts 273°
2026-05-09 02:13 40.00256 -82.89618 815 ft 28 kts 274°
2026-05-09 02:13 40.00258 -82.89737 816 ft 6 kts 247°
2026-05-09 02:13 40.00223 -82.89763 815 ft 6 kts 183°
2026-05-09 02:13 40.00194 -82.89764 815 ft 0 kts 181°
2026-05-09 02:14 40.00190 -82.89764 815 ft 2 kts 182°
2026-05-09 02:15 40.00172 -82.89796 815 ft 6 kts 265°
2026-05-09 02:15 40.00174 -82.89867 815 ft 9 kts 274°
2026-05-09 02:15 40.00180 -82.89973 815 ft 13 kts 274°
2026-05-09 02:15 40.00188 -82.90108 815 ft 15 kts 274°
2026-05-09 02:16 40.00194 -82.90244 815 ft 14 kts 274°
2026-05-09 02:16 40.00201 -82.90364 815 ft 14 kts 275°
2026-05-09 02:16 40.00208 -82.90472 815 ft 3 kts 274°
2026-05-09 02:16 40.00198 -82.90496 815 ft 2 kts 199°
2026-05-09 02:17 40.00161 -82.90503 815 ft 7 kts 186°
2026-05-09 02:17 40.00105 -82.90509 815 ft 9 kts 184°
2026-05-09 02:17 40.00032 -82.90516 815 ft 10 kts 184°
2026-05-09 02:17 39.99953 -82.90524 814 ft 13 kts 184°
2026-05-09 02:18 39.99846 -82.90534 812 ft 17 kts 184°
2026-05-09 02:18 39.99727 -82.90546 812 ft 12 kts 185°
2026-05-09 02:18 39.99657 -82.90562 812 ft 9 kts 214°
2026-05-09 02:18 39.99640 -82.90640 812 ft 9 kts 274°
2026-05-09 02:19 39.99645 -82.90730 810 ft 10 kts 274°
2026-05-09 02:19 39.99649 -82.90827 809 ft 8 kts 268°
2026-05-09 02:19 39.99616 -82.90874 809 ft 7 kts 194°
2026-05-09 02:19 39.99565 -82.90879 809 ft 6 kts 184°
2026-05-09 02:20 39.99521 -82.90886 809 ft 4 kts 189°
2026-05-09 02:20 39.99488 -82.90892 809 ft 4 kts 189°
2026-05-09 02:20 39.99456 -82.90897 809 ft 4 kts 184°
2026-05-09 02:20 39.99416 -82.90900 809 ft 8 kts 182°
2026-05-09 02:21 39.99354 -82.90904 809 ft 8 kts 183°
2026-05-09 02:21 39.99293 -82.90910 809 ft 8 kts 186°
2026-05-09 02:21 39.99231 -82.90913 809 ft 8 kts 163°
2026-05-09 02:21 39.99195 -82.90853 809 ft 8 kts 100°
2026-05-09 02:22 39.99192 -82.90774 809 ft 8 kts 94°
2026-05-09 02:22 39.99186 -82.90697 809 ft 8 kts 96°
2026-05-09 02:22 39.99181 -82.90619 809 ft 8 kts 93°
2026-05-09 02:22 39.99178 -82.90533 809 ft 10 kts 88°
2026-05-09 02:23 39.99193 -82.90444 809 ft 10 kts 71°
2026-05-09 02:23 39.99216 -82.90337 809 ft 13 kts 79°
2026-05-09 02:23 39.99218 -82.90219 809 ft 12 kts 94°
2026-05-09 02:23 39.99210 -82.90105 809 ft 12 kts 94°
2026-05-09 02:24 39.99204 -82.89992 809 ft 12 kts 94°
2026-05-09 02:24 39.99198 -82.89881 809 ft 12 kts 95°
2026-05-09 02:24 39.99192 -82.89774 809 ft 11 kts 94°
2026-05-09 02:24 39.99185 -82.89668 809 ft 11 kts 94°
2026-05-09 02:25 39.99180 -82.89562 809 ft 12 kts 93°
2026-05-09 02:25 39.99175 -82.89469 810 ft 7 kts 98°
2026-05-09 02:25 39.99143 -82.89421 810 ft 7 kts 160°
2026-05-09 02:25 39.99102 -82.89420 809 ft 3 kts 182°
2026-05-09 02:26 39.99092 -82.89420 809 ft 0 kts 186°
2026-05-09 02:26 39.99088 -82.89425 809 ft 0 kts 236°
2026-05-09 02:26 39.99086 -82.89437 809 ft 2 kts 262°
2026-05-09 02:26 39.99086 -82.89466 809 ft 3 kts 272°
2026-05-09 02:27 39.99087 -82.89485 809 ft 0 kts 266°
2026-05-09 02:27 39.99085 -82.89487 809 ft 0 kts 229°
2026-05-09 02:27 39.99084 -82.89487 809 ft 0 kts 201°
2026-05-09 02:27 39.99083 -82.89486 809 ft 0 kts 191°